[[{"header":{"parameterUnit":"m.s-1","parameterCategory":1,"la1":30.2991,"la2":30.254,"lo1":-89.0895,"lo2":-89.0444,"dy":0.0017,"dx":0.0017,"nx":28,"ny":28,"refTime":"2024-05-13T09:00:00:Z","depth":0,"parameterNumber":2,"parameterNumberName":"U-component_of_WINDS"},"data":[0,0,0,0,0,0,0,0,0,0,0,0,0,0,0,0,0,0,0,0,0,0,0,0,0,0,0,0,0,0,0,0,0,0,0,0,0,0,0,0,0,0,0,0,0,0,0,0,0,0,0,0,0,0,0,0,0,0,-3.8159,-3.8161,0,-3.8295,-3.8297,-3.8298,-3.8212,-3.8208,-3.8204,-3.82,-3.8342,-3.835,-3.8357,0,0,0,0,0,0,0,0,0,0,0,0,0,-3.7828,-3.7835,-3.8159,-3.8161,-3.8163,-3.8295,-3.8297,-3.8299,-3.8212,-3.8207,-3.8203,-3.8198,-3.834,-3.8349,-3.8358,0,0,0,0,0,0,0,0,0,0,0,0,0,-3.7969,-3.7837,-3.8159,-3.8135,-3.8135,-3.8295,-3.8297,-3.8299,-3.8213,-3.8207,-3.8201,-3.8196,-3.8337,-3.8348,-3.8359,-3.8551,0,0,-3.8394,-3.8399,0,0,0,0,0,0,0,0,-3.7961,-3.7981,-3.8137,-3.8137,-3.8137,-3.823,-3.8232,-3.8384,-3.8215,-3.8184,-3.82,-3.8193,-3.831,-3.8323,-3.8362,-3.8557,-3.8564,-3.8395,-3.8402,-3.8407,-3.841,0,0,0,0,0,0,0,-3.7952,-3.7975,-3.8213,-3.814,-3.8139,-3.8119,-3.8132,-3.8261,-3.828,-3.8186,-3.818,-3.8197,-3.8309,-3.8352,-3.8365,-3.8566,-3.8395,-3.8405,-3.8412,-3.8416,-3.8926,-3.8933,0,0,0,0,0,0,-3.7943,-3.7967,-3.8209,-3.8217,-3.8032,-3.813,-3.8145,-3.8206,-3.8278,-3.8283,-3.8202,-3.8193,-3.8335,-3.8352,-3.837,-3.86,-3.8407,-3.8417,-3.8424,-3.892,-3.8928,-3.8935,0,0,0,0,0,0,-3.7936,-3.7966,-3.8203,-3.8091,-3.8119,-3.8142,-3.8212,-3.8212,-3.8255,-3.829,-3.8293,-3.8242,-3.8331,-3.8354,-3.8506,-3.8603,-3.8422,-3.8433,-3.8912,-3.8922,-3.8932,-3.9061,0,0,0,0,0,0,-3.7927,-3.7964,-3.8036,-3.8093,-3.8126,-3.8337,-3.8218,-3.8219,-3.8274,-3.8263,-3.8328,-3.8333,-3.8328,-3.849,-3.8518,-3.8616,-3.8442,-3.8903,-3.8916,-3.8928,-3.9048,-3.9074,-3.9097,0,0,0,0,0,-3.7916,-3.8067,-3.804,-3.807,-3.8216,-3.8343,-3.8362,-3.8352,-3.8282,-3.8356,-3.8378,-3.8331,-3.8588,-3.8506,-3.8537,-3.864,-3.8897,-3.8913,-3.8927,-3.9037,-3.9069,-3.9096,0,0,0,0,0,0,-3.8022,-3.8074,-3.8045,-3.8219,-3.8277,-3.8328,-3.842,-3.8385,-3.8465,-3.8451,-3.8436,-3.8452,-3.8612,-3.8641,-3.8549,-3.883,-3.8732,-3.8754,-3.8805,-3.8836,-3.8859,-3.8849,-3.8451,0,0,0,0,0,-3.8065,-3.8163,-3.8204,-3.8354,-3.8384,-3.8398,-3.8452,-3.8439,-3.8499,-3.8524,-3.8557,-3.8619,-3.8713,-3.8776,-3.8864,-3.9052,-3.9066,-3.9138,-3.9162,-3.9181,-3.9201,-3.9304,-3.9337,-3.8985,-3.8985,-3.8985,0,0,-3.8157,-3.8197,-3.826,-3.8376,-3.8419,-3.8522,-3.8419,-3.8531,-3.8607,-3.8541,-3.8687,-3.8715,-3.8782,-3.8953,-3.903,-3.8982,-3.9301,-3.9201,-3.9216,-3.9225,-3.9323,-3.9356,-3.9386,-3.8995,-3.8993,-3.8992,0,0,-3.8375,-3.8415,-3.8545,-3.8591,-3.8658,-3.8665,-3.8697,-3.8754,-3.8769,-3.8915,-3.8868,-3.8959,-3.9122,-3.9172,-3.9219,-3.9457,-3.9418,-3.9487,-3.9614,-3.9714,-3.9742,-3.9766,-3.9853,-3.9884,-3.9506,-3.9506,-3.9507,0,-3.8481,-3.8632,-3.8616,-3.8733,-3.8786,-3.873,-3.8862,-3.8907,-3.9,-3.9039,-3.8983,-3.9187,-3.9228,-3.9411,-3.9469,-3.9509,-3.9545,-3.948,-3.9739,-3.9763,-3.9786,-3.9868,-3.9901,-3.9514,-3.9513,-3.9513,-3.9512,0,-3.8758,-3.8864,-3.8961,-3.9052,-3.9115,-3.9239,-3.9244,-3.9311,-3.9293,-3.9307,-3.9458,-3.9505,-3.9603,-3.9645,-3.9629,-3.9827,-3.9795,-3.974,-3.9641,-3.9828,-3.9905,-3.9936,-3.9526,-3.9523,-3.9521,-3.9519,0,0,-3.9048,-3.9128,-3.9164,-3.9205,-3.9275,-3.9357,-3.9479,-3.9574,-3.9632,-3.9699,-3.9801,-3.9941,-3.989,-3.9943,-3.9932,-4.002,-4.0208,-3.9954,-3.9956,-4.0001,-4.0431,-4.0473,-4.0509,-4.0182,-4.0188,-4.0192,-4.0426,0,-3.9271,-3.9482,-3.9473,-3.9671,-3.9769,-3.9718,-3.9824,-3.988,-3.9896,-3.9983,-4.0002,-4.0102,-4.0026,-4.0059,-4.0143,-4.0167,-4.0294,-4.015,-4.0279,-4.0284,-4.0265,-4.055,-4.0594,-4.0812,-4.0455,-4.0461,-4.0464,0,-3.956,-3.9635,-3.9844,-3.99,-3.9941,-4.0036,-4.0123,-4.0206,-4.0269,-4.0275,-4.0335,-4.031,-4.0435,-4.0333,-4.0505,-4.0408,-4.046,-4.048,-4.0488,-4.0501,-4.0386,-4.0571,-4.0881,-4.0914,-4.0511,-4.0508,-4.0504,0,-3.9751,-3.9905,-4.005,-4.0086,-4.0155,-4.0224,-4.0256,-4.0312,-4.037,-4.0447,-4.0484,-4.0575,-4.0625,-4.0696,-4.0697,-4.0622,-4.0873,-4.077,-4.0883,-4.0883,-4.0939,-4.0935,-4.1263,-4.0971,-4.097,-4.097,-4.0969,0,-4.0002,-4.0132,-4.0137,-4.0226,-4.037,-4.0358,-4.0502,-4.0527,-4.0578,-4.0672,-4.0633,-4.0723,-4.0718,-4.0809,-4.0811,-4.0955,-4.0977,-4.0987,-4.0986,-4.0991,-4.099,-4.1026,-4.1011,-4.0978,-4.0976,-4.0975,-4.0973,0,-4.0241,-4.0249,-4.0404,-4.0456,-4.0473,-4.0577,-4.0622,-4.0708,-4.0721,-4.0841,-4.0869,-4.0891,-4.0996,-4.1004,-4.1126,-4.1127,-4.1302,-4.1284,-4.1281,-4.1278,-4.1391,-4.1381,-4.1754,-4.1803,-4.1478,-4.1481,-4.1484,0,-4.0401,-4.0499,-4.0563,-4.0623,-4.0659,-4.0756,-4.0815,-4.0807,-4.0871,-4.095,-4.1026,-4.1128,-4.1209,-4.138,-4.1408,-4.1502,-4.1487,-4.1611,-4.1501,-4.1503,-4.149,-4.1485,-4.1495,-4.1633,-4.1636,-4.1639,-4.1641,0,-4.0685,-4.0684,-4.077,-4.0858,-4.093,-4.0999,-4.1064,-4.1115,-4.1116,-4.1189,-4.1296,-4.1359,-4.1484,-4.1586,-4.1678,-4.1712,-4.1679,-4.1676,-4.1707,-4.1714,-4.1709,-4.1715,-4.1341,-4.1668,-4.1665,-4.1663,-4.1662,-4.1661,-4.089,-4.0975,-4.1033,-4.1131,-4.1179,-4.124,-4.1323,-4.1347,-4.1436,-4.1536,-4.1527,-4.1646,-4.1707,-4.1827,-4.1869,-4.1963,-4.1921,-4.1966,-4.1978,-4.199,-4.2002,-4.1693,-4.198,-4.1979,-4.1978,-4.1978,-4.1977,0,-4.1172,-4.1207,-4.1297,-4.1388,-4.1466,-4.1425,-4.1495,-4.1563,-4.1668,-4.1727,-4.1807,-4.1932,-4.2031,-4.2067,-4.2164,-4.2232,-4.2219,-4.2258,-4.2254,-4.2263,-4.2033,-4.1997,-4.2267,-4.2267,-4.2267,-4.2267,-4.2267,-4.2267,-4.1328,-4.1471,-4.1478,-4.1645,-4.1679,-4.1795,-4.1838,-4.1896,-4.1943,-4.2083,-4.2165,-4.2187,-4.2238,-4.2338,-4.2428,-4.2436,-4.2475,-4.2521,-4.2523,-4.2308,-4.2279,-4.2251,-4.2217,-4.2529,-4.2529,-4.2744,-4.2746,-4.2748]},{"header":{"parameterUnit":"m.s-1","parameterCategory":1,"la1":30.2991,"la2":30.254,"lo1":-89.0895,"lo2":-89.0444,"dy":0.0017,"dx":0.0017,"nx":28,"ny":28,"refTime":"2024-05-13T09:00:00:Z","depth":0,"parameterNumber":3,"parameterNumberName":"V-component_of_WINDS"},"data":[0,0,0,0,0,0,0,0,0,0,0,0,0,0,0,0,0,0,0,0,0,0,0,0,0,0,0,0,0,0,0,0,0,0,0,0,0,0,0,0,0,0,0,0,0,0,0,0,0,0,0,0,0,0,0,0,0,0,0.7113,0.7113,0,0.7135,0.7135,0.7135,0.7131,0.713,0.713,0.7129,0.715,0.7151,0.7152,0,0,0,0,0,0,0,0,0,0,0,0,0,0.7067,0.7068,0.7113,0.7113,0.7114,0.7135,0.7135,0.7135,0.7131,0.713,0.713,0.7129,0.715,0.7151,0.7152,0,0,0,0,0,0,0,0,0,0,0,0,0,0.7088,0.7068,0.7113,0.7114,0.7114,0.7135,0.7135,0.7135,0.7131,0.713,0.713,0.7129,0.715,0.7151,0.7152,0.7173,0,0,0.7157,0.7157,0,0,0,0,0,0,0,0,0.7087,0.7089,0.7113,0.7114,0.7114,0.7129,0.7127,0.7148,0.7131,0.7124,0.7129,0.7129,0.7144,0.7146,0.7151,0.7174,0.7175,0.7157,0.7158,0.7158,0.7158,0,0,0,0,0,0,0,0.7085,0.7088,0.7122,0.7114,0.7114,0.7113,0.7115,0.7131,0.7137,0.7125,0.7125,0.7127,0.7144,0.715,0.7151,0.7175,0.7157,0.7158,0.7159,0.7159,0.7218,0.7219,0,0,0,0,0,0,0.7084,0.7087,0.7121,0.7122,0.7099,0.7114,0.7117,0.7125,0.7137,0.7138,0.7128,0.7127,0.7147,0.715,0.7152,0.7178,0.7158,0.7159,0.716,0.7217,0.7218,0.7219,0,0,0,0,0,0,0.7083,0.7087,0.712,0.7105,0.7109,0.7116,0.7125,0.7126,0.7132,0.7139,0.714,0.7133,0.7147,0.715,0.7168,0.7179,0.716,0.7161,0.7216,0.7218,0.7219,0.723,0,0,0,0,0,0,0.7081,0.7086,0.7094,0.7105,0.711,0.7136,0.7126,0.7127,0.7134,0.7133,0.7144,0.7145,0.7147,0.7166,0.717,0.718,0.7162,0.7216,0.7217,0.7218,0.7229,0.7231,0.7234,0,0,0,0,0,0.708,0.7096,0.7095,0.7099,0.712,0.7137,0.7139,0.7141,0.7135,0.7143,0.7148,0.7145,0.7177,0.7168,0.7172,0.7183,0.7215,0.7217,0.7218,0.7228,0.7231,0.7233,0,0,0,0,0,0,0.7085,0.7097,0.7096,0.7116,0.7126,0.7136,0.7146,0.7145,0.7155,0.7154,0.7156,0.7158,0.7177,0.7182,0.7172,0.7205,0.7195,0.7198,0.7201,0.7204,0.7206,0.7205,0.7164,0,0,0,0,0,0.7089,0.7102,0.7111,0.7128,0.7133,0.7139,0.7146,0.7147,0.7157,0.716,0.7167,0.7176,0.7188,0.7196,0.7208,0.7229,0.7232,0.7239,0.7242,0.7244,0.7246,0.7259,0.7262,0.7224,0.7224,0.7224,0,0,0.7096,0.7104,0.7112,0.713,0.7137,0.715,0.7142,0.7156,0.7166,0.7162,0.7181,0.7186,0.7196,0.7216,0.7225,0.7221,0.7257,0.7246,0.7247,0.7248,0.7261,0.7264,0.7267,0.7225,0.7225,0.7225,0,0,0.7116,0.7124,0.7139,0.7147,0.7159,0.7163,0.7167,0.7178,0.7182,0.72,0.7198,0.721,0.7231,0.7239,0.7245,0.7271,0.7268,0.7275,0.7287,0.73,0.7303,0.7306,0.7316,0.7319,0.7277,0.7277,0.7277,0,0.7124,0.7144,0.7147,0.7162,0.7171,0.7169,0.7185,0.7192,0.7207,0.7213,0.7207,0.7235,0.7242,0.7264,0.7271,0.7276,0.7281,0.7273,0.7302,0.7305,0.7308,0.7317,0.7321,0.7277,0.7277,0.7277,0.7277,0,0.7154,0.7168,0.7179,0.7195,0.7204,0.7219,0.7225,0.7234,0.7235,0.7239,0.7259,0.7267,0.7281,0.7286,0.7287,0.731,0.7307,0.7302,0.7292,0.7312,0.7321,0.7325,0.7279,0.7278,0.7278,0.7278,0,0,0.7177,0.7195,0.72,0.7207,0.7221,0.7232,0.7248,0.7262,0.7271,0.7281,0.7295,0.7313,0.731,0.7317,0.7319,0.733,0.7351,0.7324,0.7324,0.7329,0.7378,0.7382,0.7386,0.7349,0.735,0.735,0.7377,0,0.72,0.7228,0.7232,0.7257,0.7271,0.727,0.7284,0.7294,0.7299,0.7312,0.7317,0.7331,0.7324,0.7329,0.734,0.7346,0.7361,0.7344,0.7362,0.7363,0.736,0.7391,0.7394,0.7419,0.7381,0.7381,0.7382,0,0.7229,0.7242,0.7269,0.7282,0.7288,0.7301,0.7315,0.7327,0.7339,0.7342,0.7351,0.7352,0.7368,0.7358,0.7382,0.737,0.7378,0.7382,0.7383,0.7385,0.7374,0.7394,0.7427,0.7431,0.7387,0.7387,0.7386,0,0.7245,0.7269,0.7288,0.7295,0.731,0.7319,0.7326,0.7337,0.7347,0.7359,0.7365,0.7379,0.7387,0.7398,0.7402,0.7394,0.7426,0.7416,0.7429,0.7429,0.7436,0.7435,0.7471,0.744,0.744,0.744,0.744,0,0.727,0.7286,0.7296,0.7308,0.7327,0.7331,0.735,0.7356,0.7367,0.738,0.738,0.7393,0.7397,0.7411,0.7414,0.7434,0.7437,0.744,0.7441,0.744,0.744,0.7446,0.7444,0.7441,0.7441,0.744,0.744,0,0.729,0.7297,0.7319,0.7332,0.7336,0.735,0.7362,0.7373,0.7379,0.7396,0.74,0.7409,0.7425,0.743,0.7449,0.7452,0.7475,0.7474,0.7471,0.7471,0.7485,0.7484,0.7526,0.7532,0.7496,0.7496,0.7497,0,0.7306,0.7319,0.7335,0.7344,0.7352,0.7367,0.7377,0.7382,0.7392,0.7407,0.7417,0.7433,0.7447,0.7472,0.748,0.7495,0.7495,0.7509,0.7497,0.7497,0.7496,0.7495,0.7497,0.7511,0.7511,0.7511,0.7512,0,0.7333,0.7337,0.7351,0.7367,0.7379,0.7391,0.7404,0.7411,0.7418,0.743,0.7447,0.7457,0.7477,0.7494,0.7509,0.7516,0.7516,0.7515,0.7519,0.7519,0.7518,0.752,0.7478,0.7514,0.7514,0.7514,0.7514,0.7514,0.7352,0.7365,0.7378,0.7395,0.7405,0.7416,0.7429,0.7437,0.7451,0.7469,0.7471,0.7489,0.7502,0.7523,0.7531,0.7545,0.7541,0.7547,0.7548,0.755,0.7551,0.7515,0.7548,0.7548,0.7548,0.7548,0.7548,0,0.7381,0.739,0.7405,0.7423,0.7436,0.7435,0.7449,0.746,0.7476,0.7488,0.7502,0.7522,0.7538,0.7548,0.7564,0.7574,0.7574,0.7578,0.7578,0.7579,0.7553,0.7549,0.7578,0.7578,0.7578,0.7578,0.7578,0.7578,0.7397,0.7418,0.7423,0.7449,0.7458,0.7477,0.7485,0.7496,0.7506,0.7529,0.7543,0.7549,0.7561,0.7578,0.7593,0.7596,0.7602,0.7607,0.7609,0.7584,0.7581,0.7578,0.7574,0.7608,0.7608,0.7634,0.7634,0.7634]}]]